Find Starlink 31291

NORAD ID: 59096 Int'l Des: 2024-041 Owner: SPXS Country: US Constellation: starlink operational
LEOCIRCULAR

Current View

Loading 3D Globe...

About Starlink 31291

Starlink 31291 (NORAD 59096) is a starlink constellation satellite (v2 mini) launched Feb 29, 2024 by SPXS of US. It operates in LEO, CIRCULAR orbit with a mass of 730.00 kg.

Upcoming Passes

Passes for default location (London). Set your location on the main map for personalized predictions.

Altitude History

Loading altitude history...

Two-Line Element Set

1 59096U 24041Y 26262.37369509 .00000469 00000-0 26560-4 0 9992
2 59096 43.0035 296.8174 0001436 270.4311 89.6376 15.27579862143891
Epoch: Sep 19, 2026 • Age: 48 hours

Current Status

Altitude 494.2 km
Apogee / Perigee N/A
Velocity 7.62 km/s
Sub-Earth Point -39.71°S, 30.56°E
Launch Date Feb 29, 2024
Age 2.5 years
Type internet

Technical Details

Classification Payload
Mass 730.00 kg
Dry Mass 700.00 kg
Length 0.30 m
Span 29.00 m
Shape ? Box + pan
Manufacturer SPXS
Bus Type Starlink V2M
Phase Status In Orbit
Owner/State SPXS/US

Most Searched